Wind_Speed
44 48 50 55 59 62 64 65 67 66 66 64 66 66 69 72 74 74 77 77 77 76 71 68 63 58 59 59 54 51 48 45 45 49 52 52 53 51 48 50 52 49 49
47 51 55 60 62 65 66 66 68 69 68 68 69 71 73 76 77 82 83 83 79 80 76 69 64 65 66 62 56 54 50 49 50 52 55 54 52 50 48 52 53 53 51
50 55 58 61 64 66 67 69 72 72 71 71 72 76 78 82 83 87 88 89 90 85 76 71 73 71 66 62 58 58 55 53 53 54 58 58 54 53 48 51 55 57 54
54 57 61 64 66 68 70 73 73 73 72 74 77 80 85 87 90 95 92 94 87 86 85 82 81 75 68 63 57 56 57 55 55 57 60 62 59 56 54 52 52 59 58
53 58 62 65 67 71 72 74 76 76 74 76 80 85 87 90 94 97 93 94 85 85 88 85 79 77 73 68 57 52 52 59 55 60 61 64 62 59 58 56 53 52 56
53 59 62 65 70 71 74 76 77 78 76 80 84 89 89 94 95 100 94 94 90 85 87 86 82 79 77 73 69 58 52 56 61 63 63 67 66 63 61 58 59 55 50
59 64 62 67 72 73 77 78 80 79 80 84 88 90 92 98 98 102 100 100 86 89 89 86 82 80 74 73 69 69 63 53 60 65 69 69 71 67 64 60 59 58 57
62 65 64 69 73 77 82 84 84 84 86 91 93 95 97 103 106 104 104 98 91 90 91 89 84 79 76 74 71 69 69 62 54 65 71 72 73 71 67 64 62 60 56
64 65 66 70 75 81 86 88 86 87 90 92 97 98 104 110 112 111 106 102 93 97 95 93 85 82 77 71 70 70 68 69 64 61 74 75 76 75 71 68 64 62 59
65 67 69 73 76 82 86 88 88 91 95 98 102 104 108 114 115 117 105 102 101 102 101 95 87 83 74 66 63 62 65 67 71 64 70 79 81 81 74 72 70 66 70
67 70 72 75 78 84 89 90 91 94 97 100 104 108 113 119 120 116 107 105 102 104 102 92 84 78 72 62 55 57 60 63 66 68 70 77 84 86 82 75 76 71 72
69 72 74 76 82 89 93 95 96 99 103 104 107 114 118 122 124 113 108 109 108 106 100 92 80 72 64 59 53 53 55 57 61 64 66 78 84 90 87 80 78 77 74
74 75 77 82 87 93 98 99 100 103 105 109 110 119 124 124 122 116 113 113 114 109 101 93 79 67 59 55 53 49 50 54 55 61 64 73 85 91 93 80 81 81 79
73 75 79 85 90 94 101 101 104 107 109 113 114 121 126 124 119 116 115 116 114 107 98 87 76 64 57 51 50 47 48 48 50 54 61 67 84 92 98 88 87 86 83
75 79 83 88 92 98 106 104 108 110 112 116 116 124 128 127 120 113 117 118 114 105 94 83 73 61 54 49 47 48 44 49 48 51 56 63 79 93 99 101 86 87 91
79 82 87 92 95 104 109 108 111 113 116 118 121 127 128 127 123 118 120 121 113 102 92 80 72 60 52 48 43 45 46 45 47 49 55 59 73 88 102 104 99 91 96
83 86 91 95 100 107 109 112 115 116 119 120 126 129 131 128 126 122 122 121 111 103 90 79 70 59 52 46 42 41 42 41 45 48 54 58 66 83 99 105 105 97 98
87 91 96 98 103 108 111 116 118 118 122 125 129 129 134 130 129 125 126 123 112 102 88 77 66 57 51 46 42 37 38 40 42 46 51 58 63 78 93 107 104 103 98
91 95 100 103 108 111 115 119 121 123 124 128 133 134 135 134 129 128 129 122 111 99 86 75 66 55 48 45 44 37 36 38 41 44 50 57 62 72 89 100 108 106 103
93 98 102 106 111 114 118 123 124 127 127 130 137 139 138 137 129 130 131 121 109 95 85 74 66 56 45 44 45 40 36 35 40 43 49 56 60 69 85 97 113 109 111
97 101 103 109 113 117 121 127 128 130 130 133 139 142 137 135 129 133 132 119 107 93 81 74 68 58 45 42 44 43 37 35 37 42 46 51 58 67 81 95 111 117 114
101 104 106 111 114 119 124 127 129 130 131 135 140 141 139 137 134 136 131 117 103 90 80 73 66 59 46 42 42 44 43 32 34 41 43 47 54 63 74 91 104 117 118
102 105 110 115 118 121 127 130 133 134 136 141 146 145 141 137 135 137 129 114 100 86 77 73 66 56 48 42 40 39 43 39 29 39 43 45 51 59 68 85 100 114 121
105 107 113 118 120 124 131 132 134 136 138 143 144 149 141 138 137 139 128 112 98 85 76 72 63 53 46 44 42 38 37 38 37 33 43 43 49 56 67 82 98 109 122
108 111 117 120 124 128 132 134 135 136 139 147 147 151 141 141 141 138 124 108 95 84 77 71 62 53 44 43 42 41 37 33 35 37 36 44 45 55 66 75 92 105 119
111 116 120 123 126 131 133 136 139 139 141 150 149 146 143 144 140 135 118 105 92 84 77 69 60 52 44 41 41 40 38 32 32 35 36 43 45 53 63 72 85 99 111
Wind_Direction
355 355 352 350 351 353 350 348 346 346 345 343 344 343 344 342 339 338 334 331 328 325 322 316 309 302 302 299 294 286 277 270 252 246 245 247 247 250 246 238 237 233 236
355 351 352 354 352 349 348 347 345 346 344 343 343 342 341 341 337 335 333 332 329 325 322 316 307 302 300 298 291 283 274 265 252 242 242 242 242 240 241 240 235 235 235
351 355 352 350 349 346 345 346 346 345 343 342 342 341 340 340 336 336 334 333 329 327 322 313 311 308 299 293 286 281 273 259 249 240 237 238 237 236 232 237 236 235 236
353 350 348 346 345 346 345 348 346 344 342 340 341 341 341 341 339 338 336 334 331 326 322 319 315 310 303 294 283 276 270 261 248 240 235 236 235 232 232 229 233 233 235
346 346 344 343 343 343 344 346 345 344 342 341 341 341 341 340 340 338 336 333 328 322 320 317 314 308 305 299 289 278 266 257 252 239 234 233 235 230 230 228 227 226 234
339 339 339 341 343 344 345 345 345 343 341 340 340 341 341 340 339 336 335 332 327 321 319 318 314 310 304 301 296 282 264 251 249 244 232 231 235 231 227 228 224 221 225
337 335 335 340 341 344 345 343 344 341 340 340 341 340 341 340 337 336 336 332 329 323 323 318 312 307 298 293 288 283 277 254 245 240 237 229 231 231 228 225 225 222 220
337 336 335 339 341 344 344 343 343 342 341 341 342 342 341 339 339 337 336 332 327 325 323 317 312 306 299 292 288 280 272 266 246 237 232 231 226 230 229 226 223 219 222
334 335 337 339 342 344 343 342 341 341 340 341 341 343 341 340 340 338 334 331 327 325 324 319 315 308 302 294 285 276 270 263 255 237 229 228 225 226 228 226 220 216 215
334 335 338 338 338 340 341 340 340 342 341 343 342 342 341 338 340 337 334 330 327 326 325 322 318 311 304 294 285 275 267 262 254 241 231 224 223 221 225 224 223 215 213
336 338 336 336 336 339 340 339 340 342 341 344 341 340 340 338 340 336 332 331 328 328 326 322 317 311 305 296 286 278 268 261 253 245 230 224 218 220 218 221 221 219 212
335 337 336 336 338 340 339 340 340 341 340 343 341 340 340 339 338 335 334 332 330 328 326 322 318 311 305 298 292 282 272 263 253 244 233 225 217 217 216 219 219 219 212
335 336 337 337 339 339 338 340 339 340 341 341 341 339 340 340 338 336 334 332 332 329 327 322 319 313 305 300 294 282 271 263 253 246 235 224 218 214 213 213 220 217 214
335 335 336 337 338 338 338 339 339 339 341 340 340 339 341 339 339 334 333 333 332 329 325 322 319 314 305 300 294 287 277 267 256 246 238 224 220 212 212 208 214 215 216
332 335 335 336 338 337 338 338 338 339 340 340 340 340 341 339 337 333 333 333 332 330 326 323 319 315 306 300 296 290 277 269 261 249 237 226 219 215 209 206 209 212 209
332 333 334 336 336 336 338 337 337 338 338 339 340 339 341 339 336 334 333 335 333 331 327 323 320 315 306 300 294 289 281 271 260 246 237 226 219 217 209 207 204 211 209
332 332 335 336 334 335 336 336 336 338 337 339 340 339 340 339 335 334 335 335 334 331 328 323 319 313 304 300 295 291 281 267 257 246 236 227 218 215 214 206 205 205 210
331 332 334 334 332 334 334 335 335 336 336 338 339 339 339 338 334 335 336 335 335 331 329 324 321 314 304 299 294 291 281 269 252 245 237 229 220 213 214 208 206 204 205
330 332 334 332 332 333 332 334 334 335 337 338 338 338 339 336 335 335 336 335 334 331 329 325 323 315 303 299 295 296 283 267 256 243 235 232 220 214 212 213 204 203 204
329 331 332 330 332 331 332 333 334 335 337 338 338 338 338 335 334 335 336 336 333 331 329 325 323 317 303 296 295 295 286 268 255 246 234 230 225 214 212 210 208 201 203
329 330 330 329 330 330 332 334 335 336 337 337 338 338 338 335 334 336 336 335 333 331 329 325 322 317 305 294 292 294 288 274 256 247 241 230 226 219 211 211 208 205 203
327 328 327 328 329 331 332 333 334 336 337 337 337 338 336 334 336 337 336 335 333 330 328 325 322 315 304 296 291 294 292 271 260 251 242 233 225 223 213 210 209 208 203
325 326 325 328 330 330 331 333 334 335 336 337 337 338 335 335 336 336 336 334 333 330 327 324 321 314 303 295 289 289 289 282 254 248 246 235 227 222 215 210 212 207 208
324 324 325 328 329 330 331 333 334 336 336 337 336 337 335 335 336 335 335 334 332 329 326 323 319 311 299 294 293 289 286 280 273 241 244 237 227 220 216 209 209 209 207
322 323 326 328 329 330 332 333 334 336 337 335 337 336 336 336 335 335 334 333 331 329 326 322 317 310 298 293 293 294 290 273 265 259 234 242 228 219 216 212 210 211 206
322 323 326 327 329 330 331 334 335 335 337 335 337 335 335 336 335 334 334 332 331 328 325 322 317 310 301 296 295 294 293 278 257 250 241 237 231 220 216 212 210 211 211
Height
10895 10890 10887 10883 10876 10871 10866 10861 10855 10848 10842 10834 10827 10821 10816 10810 10805 10800 10794 10788 10781 10774 10764 10755 10749 10742 10735 10730 10728 10726 10726 10725 10724 10724 10723 10724 10727 10732 10734 10737 10740 10743 10745
10891 10887 10882 10877 10871 10866 10861 10855 10848 10841 10834 10827 10820 10813 10807 10802 10795 10788 10780 10773 10766 10759 10754 10745 10736 10728 10720 10716 10711 10709 10707 10707 10707 10708 10708 10709 10713 10717 10720 10726 10729 10730 10735
10888 10883 10877 10873 10868 10862 10855 10848 10840 10832 10825 10817 10811 10803 10796 10789 10782 10772 10762 10752 10742 10737 10732 10724 10717 10712 10707 10699 10692 10689 10688 10688 10690 10691 10692 10694 10697 10702 10706 10711 10716 10719 10724
10884 10879 10875 10869 10863 10856 10848 10841 10833 10825 10817 10809 10801 10792 10782 10773 10763 10753 10741 10730 10718 10707 10698 10691 10684 10680 10679 10678 10675 10671 10668 10668 10670 10672 10675 10677 10681 10686 10691 10696 10702 10707 10712
10882 10876 10871 10864 10858 10850 10841 10834 10826 10818 10810 10802 10792 10782 10772 10763 10750 10739 10727 10714 10704 10692 10682 10673 10665 10655 10649 10647 10652 10651 10650 10649 10649 10652 10655 10659 10663 10670 10675 10681 10688 10695 10701
10879 10873 10866 10859 10852 10844 10835 10827 10819 10811 10802 10794 10783 10772 10762 10751 10739 10728 10717 10703 10692 10679 10665 10651 10640 10631 10621 10618 10616 10625 10629 10630 10631 10633 10636 10641 10646 10653 10659 10667 10673 10680 10686
10875 10869 10862 10853 10844 10835 10828 10819 10811 10802 10793 10783 10775 10765 10754 10741 10729 10713 10699 10682 10667 10653 10642 10632 10621 10610 10602 10595 10592 10590 10594 10606 10610 10612 10616 10622 10627 10635 10643 10651 10660 10668 10674
10870 10864 10855 10845 10836 10827 10818 10808 10798 10788 10779 10768 10758 10748 10736 10723 10708 10691 10677 10662 10650 10636 10622 10609 10598 10588 10578 10570 10566 10566 10565 10571 10582 10587 10595 10601 10610 10617 10625 10634 10645 10655 10665
10864 10856 10846 10839 10827 10817 10807 10798 10791 10782 10772 10761 10746 10731 10716 10701 10685 10670 10656 10641 10627 10612 10598 10583 10570 10557 10550 10545 10539 10537 10538 10540 10549 10561 10568 10578 10592 10597 10605 10614 10626 10639 10648
10855 10847 10838 10830 10822 10813 10803 10794 10781 10768 10756 10742 10728 10715 10701 10686 10669 10651 10633 10619 10602 10588 10571 10555 10542 10529 10523 10517 10511 10509 10509 10512 10516 10531 10543 10553 10564 10573 10583 10596 10607 10619 10631
10846 10839 10832 10823 10814 10805 10795 10784 10772 10760 10747 10732 10718 10705 10688 10670 10651 10636 10618 10600 10581 10565 10550 10534 10520 10507 10495 10491 10489 10484 10483 10485 10489 10498 10512 10526 10538 10550 10563 10577 10589 10599 10612
10842 10834 10825 10813 10802 10792 10783 10772 10760 10748 10734 10720 10705 10690 10672 10653 10638 10618 10600 10581 10563 10544 10526 10511 10498 10483 10474 10467 10465 10462 10460 10461 10464 10470 10484 10497 10512 10525 10542 10556 10568 10581 10594
10832 10823 10814 10803 10793 10783 10771 10759 10749 10738 10723 10708 10693 10675 10656 10637 10619 10599 10580 10560 10540 10519 10502 10487 10476 10463 10452 10445 10441 10443 10441 10439 10441 10447 10457 10471 10484 10500 10518 10533 10546 10563 10576
10825 10816 10807 10797 10787 10775 10763 10751 10738 10724 10709 10696 10680 10661 10642 10623 10602 10583 10564 10543 10521 10499 10480 10465 10453 10443 10433 10425 10421 10421 10420 10420 10422 10426 10434 10447 10458 10473 10491 10509 10526 10543 10557
10818 10808 10798 10788 10777 10764 10752 10739 10727 10712 10697 10682 10666 10647 10629 10607 10589 10569 10548 10525 10501 10478 10459 10444 10432 10424 10415 10407 10401 10399 10402 10401 10402 10406 10413 10425 10434 10449 10466 10481 10503 10516 10534
10809 10800 10789 10777 10766 10755 10742 10728 10715 10698 10684 10668 10651 10632 10610 10590 10572 10550 10527 10504 10482 10461 10440 10424 10412 10404 10397 10390 10386 10383 10381 10383 10382 10386 10391 10403 10415 10427 10443 10459 10476 10495 10514
10798 10789 10777 10766 10755 10745 10733 10718 10702 10686 10670 10654 10636 10614 10593 10572 10551 10529 10508 10485 10462 10441 10422 10407 10394 10385 10378 10372 10368 10367 10364 10365 10364 10366 10371 10382 10395 10407 10424 10436 10452 10472 10494
10787 10777 10765 10755 10745 10734 10721 10707 10690 10675 10657 10637 10619 10595 10575 10554 10531 10510 10486 10462 10441 10421 10403 10388 10376 10366 10359 10353 10350 10352 10349 10346 10348 10349 10354 10362 10376 10387 10400 10418 10432 10451 10473
10776 10767 10755 10743 10732 10720 10708 10693 10676 10658 10639 10619 10600 10578 10557 10536 10513 10489 10465 10442 10420 10403 10385 10370 10359 10351 10342 10335 10329 10333 10333 10330 10330 10333 10337 10343 10355 10369 10379 10397 10412 10429 10448
10768 10757 10745 10732 10720 10707 10692 10677 10659 10640 10621 10600 10579 10560 10539 10518 10494 10471 10446 10422 10401 10382 10366 10352 10342 10334 10329 10320 10313 10314 10315 10314 10313 10316 10319 10324 10335 10348 10359 10373 10391 10407 10424
10757 10746 10735 10722 10708 10693 10675 10657 10639 10619 10601 10582 10564 10542 10520 10499 10476 10450 10425 10402 10380 10363 10349 10335 10322 10315 10313 10308 10299 10296 10298 10297 10297 10298 10302 10309 10316 10327 10337 10349 10370 10384 10403
10747 10736 10724 10711 10697 10680 10665 10648 10628 10609 10589 10568 10547 10525 10500 10477 10453 10429 10405 10383 10363 10344 10329 10319 10308 10296 10294 10291 10285 10278 10276 10283 10281 10280 10285 10291 10296 10305 10319 10330 10344 10367 10382
10737 10726 10712 10699 10683 10668 10651 10630 10610 10589 10566 10546 10521 10499 10478 10454 10431 10408 10385 10363 10344 10328 10314 10300 10290 10281 10273 10274 10273 10269 10262 10260 10266 10265 10266 10272 10278 10286 10298 10312 10326 10344 10363
10726 10715 10701 10685 10670 10654 10635 10615 10597 10576 10556 10534 10511 10488 10462 10438 10411 10385 10363 10343 10326 10310 10297 10284 10274 10266 10258 10254 10253 10254 10252 10246 10245 10252 10249 10254 10259 10267 10277 10289 10302 10319 10343
10715 10702 10687 10671 10656 10638 10619 10600 10580 10559 10536 10515 10490 10464 10440 10414 10388 10365 10344 10324 10307 10290 10278 10265 10254 10249 10243 10239 10236 10234 10235 10234 10231 10230 10237 10235 10242 10250 10257 10270 10283 10296 10315
10702 10687 10672 10657 10640 10623 10603 10584 10562 10540 10519 10495 10471 10445 10419 10395 10369 10346 10325 10305 10287 10272 10259 10247 10237 10229 10226 10223 10219 10218 10216 10216 10217 10215 10219 10220 10223 10232 10239 10252 10265 10280 10298